Alexandria, LA

3:11 PM CST on November 24, 2017 (GMT -0600)
Alexandria International

Weather History for KAEX - March, 2012

Change the Weather History Date:

Sunday, March 18, 2012

  Actual Average Record
Temperature  
Mean Temperature 75 °F 60 °F  
Max Temperature 83 °F 71 °F 87 °F (1963)
Min Temperature 67 °F 48 °F 29 °F (1893)
Degree Days  
Heating Degree Days 0 6  
Month to date heating degree days 59 145  
Since 1 July heating degree days 1489 1810  
Cooling Degree Days 10 1  
Month to date cooling degree days 77 18  
Year to date cooling degree days 106 35  
Growing Degree Days 24 (Base 50)    
Moisture  
Dew Point 66 °F    
Average Humidity 74    
Maximum Humidity 93    
Minimum Humidity 54    
Precipitation  
Precipitation 0.00 in 0.15 in 2.90 in (1987)
Month to date precipitation 4.20 3.09  
Year to date precipitation 21.26 12.77  
Snow  
Snow 0.00 in - 0.00 in ()
Month to date snowfall 0.0  
Since 1 July snowfall 0.0  
Snow Depth 0.00 in    
Sea Level Pressure  
Sea Level Pressure 30.08 in    
Wind  
Wind Speed 10 mph (SSE)    
Max Wind Speed 20 mph    
Max Gust Speed 28 mph    
Visibility 9 miles    
Events      
T = Trace of Precipitation, MM = Missing Value Source: NWS Daily Summary

Daily Weather History Graph

Daily Weather History Graph

Search for Another Location

Airport or City:

Trip Planner

Search our weather history database for the weather conditions in past years. The results will help you decide how hot, cold, wet, or windy it might be!

Date:

Astronomy

Mar. 18, 2012 Rise Set
Actual Time 7:15 AM CDT 7:20 PM CDT
Civil Twilight 6:51 AM CDT 7:44 PM CDT
Nautical Twilight 6:23 AM CDT 8:13 PM CDT
Astronomical Twilight 5:55 AM CDT 8:41 PM CDT
Moon 4:41 AM CDT (3/18) 3:59 PM CDT (3/18)
Length of Visible Light 12h 53m
Length of Day
12h 04m
Waning Crescent, 15% of the Moon is Illuminated
Mar 18
Waning Crescent
Mar 22
New
Mar 30
First Quarter
Apr 6
Full
Apr 13
Last Quarter

Hourly Weather History & Observations

Time (CDT) Temp. Heat Index Dew Point Humidity Pressure Visibility Wind Dir Wind Speed Gust Speed Precip Events Conditions
12:53 AM 69.1 °F - 66.0 °F 90% 30.09 in 10.0 mi SSE 6.9 mph - N/A   Mostly Cloudy
1:23 AM 69.8 °F - 66.2 °F 88% 30.08 in 10.0 mi SSE 9.2 mph - N/A   Overcast
1:43 AM 69.8 °F - 66.2 °F 88% 30.07 in 10.0 mi SSE 8.1 mph - N/A   Scattered Clouds
1:53 AM 70.0 °F - 66.0 °F 87% 30.08 in 10.0 mi SSE 10.4 mph - N/A   Scattered Clouds
2:08 AM 69.8 °F - 66.2 °F 88% 30.06 in 10.0 mi SSE 8.1 mph - N/A   Mostly Cloudy
2:53 AM 70.0 °F - 66.0 °F 87% 30.07 in 10.0 mi SSE 5.8 mph - N/A   Mostly Cloudy
3:11 AM 69.8 °F - 66.2 °F 88% 30.07 in 10.0 mi SSE 4.6 mph - N/A   Overcast
3:53 AM 70.0 °F - 66.9 °F 90% 30.08 in 10.0 mi SSE 5.8 mph - N/A   Overcast
4:03 AM 69.8 °F - 66.2 °F 88% 30.07 in 10.0 mi SSE 4.6 mph - N/A   Overcast
4:53 AM 68.0 °F - 66.0 °F 93% 30.08 in 10.0 mi SE 3.5 mph - N/A   Overcast
5:00 AM 69.8 °F - 66.2 °F 88% 30.07 in 10.0 mi ESE 6.9 mph - N/A   Overcast
5:49 AM 68.0 °F - 66.2 °F 94% 30.07 in 8.0 mi SE 8.1 mph - N/A   Scattered Clouds
5:53 AM 68.0 °F - 66.0 °F 93% 30.08 in 8.0 mi SE 9.2 mph - N/A   Scattered Clouds
6:53 AM 68.0 °F - 66.0 °F 93% 30.11 in 7.0 mi SE 8.1 mph - N/A   Mostly Cloudy
7:06 AM 68.0 °F - 66.2 °F 94% 30.10 in 6.0 mi SE 6.9 mph - N/A   Overcast
7:28 AM 68.0 °F - 66.2 °F 94% 30.10 in 5.0 mi SE 8.1 mph - N/A   Overcast
7:53 AM 69.1 °F - 66.9 °F 93% 30.11 in 6.0 mi SE 8.1 mph - N/A   Overcast
8:00 AM 69.8 °F - 66.2 °F 88% 30.10 in 6.0 mi SE 8.1 mph - N/A   Overcast
8:53 AM 70.0 °F - 66.9 °F 90% 30.12 in 6.0 mi SSE 10.4 mph - N/A   Overcast
9:53 AM 73.0 °F - 68.0 °F 84% 30.14 in 8.0 mi SSE 11.5 mph - N/A   Mostly Cloudy
10:00 AM 73.4 °F - 68.0 °F 83% 30.13 in 8.0 mi SE 15.0 mph - N/A   Mostly Cloudy
10:53 AM 73.9 °F - 66.9 °F 79% 30.14 in 9.0 mi SE 13.8 mph - N/A   Overcast
11:33 AM 73.4 °F - 66.2 °F 78% 30.13 in 10.0 mi SE 12.7 mph - N/A   Mostly Cloudy
11:53 AM 75.9 °F - 66.9 °F 74% 30.14 in 10.0 mi SE 19.6 mph 24.2 mph N/A   Overcast
12:53 PM 77.0 °F - 64.9 °F 66% 30.12 in 10.0 mi SE 18.4 mph 27.6 mph N/A   Mostly Cloudy
1:53 PM 77.0 °F - 66.0 °F 69% 30.10 in 10.0 mi SE 16.1 mph - N/A   Mostly Cloudy
2:53 PM 79.0 °F - 64.9 °F 62% 30.08 in 10.0 mi SE 13.8 mph - N/A   Mostly Cloudy
3:53 PM 81.0 °F 81.9 °F 62.1 °F 52% 30.06 in 10.0 mi SSE 8.1 mph 18.4 mph N/A   Partly Cloudy
4:53 PM 80.6 °F 81.8 °F 62.6 °F 54% 30.03 in 10.0 mi South 13.8 mph 19.6 mph N/A   Clear
5:53 PM 79.0 °F - 64.0 °F 60% 30.04 in 10.0 mi South 9.2 mph 18.4 mph N/A   Mostly Cloudy
6:53 PM 75.9 °F - 64.0 °F 67% 30.03 in 10.0 mi South 8.1 mph - N/A   Clear
7:53 PM 73.0 °F - 64.0 °F 73% 30.04 in 10.0 mi South 4.6 mph - N/A   Clear
8:53 PM 72.0 °F - 63.0 °F 73% 30.06 in 10.0 mi South 6.9 mph - N/A   Clear
9:53 PM 70.0 °F - 64.9 °F 84% 30.06 in 10.0 mi SSE 6.9 mph - N/A   Clear
10:53 PM 70.0 °F - 66.0 °F 87% 30.06 in 10.0 mi SSE 9.2 mph - N/A   Clear
11:53 PM 69.8 °F - 64.4 °F 83% 30.03 in 10.0 mi SSE 9.2 mph - N/A   Clear